Kenosha, WI

3:03 PM CDT on September 19, 2017 (GMT -0500)
Kenosha Regional

Weather History for KENW - October, 2013

Change the Weather History Date:

Friday, October 25, 2013

  Actual Average Record
Temperature  
Mean Temperature 38 °F -  
Max Temperature 52 °F 55 °F 75 °F (1964)
Min Temperature 24 °F 39 °F 23 °F (1962)
Degree Days  
Heating Degree Days 28    
Moisture  
Dew Point 24 °F    
Average Humidity 57    
Maximum Humidity 85    
Minimum Humidity 38    
Precipitation  
Precipitation 0.00 in - - ()
Sea Level Pressure  
Sea Level Pressure 30.25 in    
Wind  
Wind Speed 9 mph (WSW)    
Max Wind Speed 22 mph    
Max Gust Speed 32 mph    
Visibility 10 miles    
Events      
Averages and records for this station are not official NWS values.
T = Trace of Precipitation, MM = Missing Value Source: NWS Daily Summary

Daily Weather History Graph

Daily Weather History Graph

Search for Another Location

Airport or City:

Trip Planner

Search our weather history database for the weather conditions in past years. The results will help you decide how hot, cold, wet, or windy it might be!

Date:

Astronomy

Oct. 25, 2013 Rise Set
Actual Time 7:17 AM CDT 5:53 PM CDT
Civil Twilight 6:48 AM CDT 6:22 PM CDT
Nautical Twilight 6:15 AM CDT 6:55 PM CDT
Astronomical Twilight 5:42 AM CDT 7:28 PM CDT
Moon 11:11 PM CDT (10/25) 12:59 PM CDT (10/25)
Length of Visible Light 11h 34m
Length of Day
10h 36m
Waning Gibbous, 62% of the Moon is Illuminated
Oct 25
Waning Gibbous
Oct 26
Last Quarter
Nov 3
New
Nov 9
First Quarter
Nov 17
Full

Hourly Weather History & Observations

Time (CDT) Temp. Windchill Dew Point Humidity Pressure Visibility Wind Dir Wind Speed Gust Speed Precip Events Conditions
12:53 AM 28.9 °F 25.2 °F 21.9 °F 75% 30.31 in 10.0 mi West 3.5 mph - N/A   Clear
1:53 AM 28.0 °F 22.8 °F 21.9 °F 78% 30.33 in 10.0 mi West 4.6 mph - N/A   Clear
2:53 AM 28.0 °F 22.8 °F 21.9 °F 78% 30.34 in 10.0 mi West 4.6 mph - N/A   Clear
3:53 AM 28.0 °F 20.8 °F 21.9 °F 78% 30.34 in 10.0 mi West 6.9 mph - N/A   Clear
4:53 AM 25.0 °F 19.3 °F 19.9 °F 81% 30.36 in 10.0 mi West 4.6 mph - N/A   Clear
5:53 AM 24.1 °F 17.0 °F 19.9 °F 84% 30.37 in 10.0 mi West 5.8 mph - N/A   Clear
6:53 AM 24.1 °F 16.0 °F 19.9 °F 84% 30.38 in 10.0 mi WSW 6.9 mph - N/A   Clear
7:53 AM 27.0 °F 20.5 °F 23.0 °F 85% 30.39 in 10.0 mi WSW 5.8 mph - N/A   Clear
8:53 AM 33.1 °F 27.7 °F 27.0 °F 78% 30.40 in 10.0 mi West 5.8 mph - N/A   Clear
9:53 AM 39.0 °F 32.8 °F 28.9 °F 67% 30.40 in 10.0 mi WSW 9.2 mph - N/A   Clear
10:53 AM 45.0 °F 40.6 °F 28.0 °F 52% 30.38 in 10.0 mi West 8.1 mph - N/A   Clear
11:53 AM 46.9 °F - 25.0 °F 42% 30.35 in 10.0 mi SW 9.2 mph 17.3 mph N/A   Mostly Cloudy
12:53 PM 48.9 °F - 26.1 °F 41% 30.32 in 10.0 mi SW 16.1 mph 20.7 mph N/A   Clear
1:53 PM 50.0 °F - 26.1 °F 39% 30.27 in 10.0 mi WSW 13.8 mph 26.5 mph N/A   Partly Cloudy
2:53 PM 51.1 °F - 27.0 °F 39% 30.23 in 10.0 mi WSW 18.4 mph 23.0 mph N/A   Partly Cloudy
3:53 PM 51.1 °F - 26.1 °F 38% 30.21 in 10.0 mi WSW 18.4 mph 27.6 mph N/A   Partly Cloudy
4:53 PM 50.0 °F - 26.1 °F 39% 30.18 in 10.0 mi WSW 16.1 mph 23.0 mph N/A   Clear
5:53 PM 48.0 °F - 26.1 °F 42% 30.15 in 10.0 mi SW 11.5 mph - N/A   Clear
6:53 PM 46.9 °F - 26.1 °F 44% 30.12 in 10.0 mi SSW 13.8 mph - N/A   Clear
7:53 PM 46.0 °F 39.3 °F 26.1 °F 46% 30.09 in 10.0 mi SSW 16.1 mph - N/A   Partly Cloudy
8:53 PM 48.0 °F - 24.1 °F 39% 30.04 in 10.0 mi SW 18.4 mph 32.2 mph N/A   Mostly Cloudy
9:53 PM 48.9 °F - 24.1 °F 38% 30.03 in 10.0 mi SW 21.9 mph 29.9 mph N/A   Clear
10:53 PM 48.0 °F - 25.0 °F 41% 30.01 in 10.0 mi SW 19.6 mph 28.8 mph N/A   Clear
11:53 PM 46.9 °F - 24.1 °F 41% 29.97 in 10.0 mi SW 17.3 mph 29.9 mph N/A   Clear